| time (UTC) | temp F | wind direction | speed MPH | gust MPH | rain 1hr in | rain 24hr in | rain mn in | humidity % | barometer mb |
| 20260505165012 | 78 | 195 | 1.0 | 8.0 | 0.00 | 0.00 | 0.00 | 84 | 1009.8 |
| 20260505164536 | 78 | 0 | 1.0 | 7.0 | 0.00 | 0.00 | 0.00 | 84 | 1009.9 |
| 20260505164011 | 78 | 0 | 0.0 | 8.0 | 0.00 | 0.00 | 0.00 | 84 | 1009.9 |
| 20260505163512 | 77 | 0 | 2.0 | 8.0 | 0.00 | 0.00 | 0.00 | 84 | 1009.9 |
| 20260505163034 | 77 | 174 | 2.0 | 7.0 | 0.00 | 0.00 | 0.00 | 84 | 1010.0 |
| 20260505162512 | 77 | 210 | 3.0 | 7.0 | 0.00 | 0.00 | 0.00 | 84 | 1009.9 |
| 20260505162014 | 77 | 293 | 2.0 | 7.0 | 0.00 | 0.00 | 0.00 | 84 | 1009.9 |
| 20260505161528 | 77 | 206 | 1.0 | 6.0 | 0.00 | 0.00 | 0.00 | 85 | 1009.8 |
| 20260505161011 | 77 | 0 | 0.0 | 10.0 | 0.00 | 0.00 | 0.00 | 85 | 1009.8 |
| 20260505160512 | 76 | 167 | 2.0 | 10.0 | 0.00 | 0.00 | 0.00 | 85 | 1009.7 |
| 20260505153034 | 76 | 240 | 2.0 | 13.0 | 0.00 | 0.00 | 0.00 | 84 | 1009.5 |
| 20260505152512 | 76 | 0 | 1.0 | 8.0 | 0.00 | 0.00 | 0.00 | 84 | 1009.5 |
| 20260505152013 | 76 | 170 | 2.0 | 11.0 | 0.00 | 0.00 | 0.00 | 84 | 1009.5 |
| 20260505151530 | 76 | 0 | 3.0 | 18.0 | 0.00 | 0.00 | 0.00 | 84 | 1009.6 |
| 20260505151013 | 76 | 236 | 5.0 | 18.0 | 0.00 | 0.00 | 0.00 | 84 | 1009.4 |
| 20260505150511 | 76 | 138 | 4.0 | 14.0 | 0.00 | 0.00 | 0.00 | 84 | 1009.5 |
| 20260505140510 | 74 | 149 | 3.0 | 9.0 | 0.00 | 0.00 | 0.00 | 89 | 1009.3 |
| 20260505125011 | 71 | 122 | 1.0 | 6.0 | 0.00 | 0.00 | 0.00 | 91 | 1009.3 |
| 20260505124529 | 71 | 217 | 1.0 | 6.0 | 0.00 | 0.00 | 0.00 | 91 | 1009.0 |
| 20260505124013 | 71 | 174 | 1.0 | 6.0 | 0.00 | 0.00 | 0.00 | 91 | 1008.8 |
| 20260505123509 | 71 | 85 | 0.0 | 5.0 | 0.00 | 0.00 | 0.00 | 91 | 1008.7 |
| 20260505123035 | 71 | 107 | 1.0 | 5.0 | 0.00 | 0.00 | 0.00 | 91 | 1008.8 |
| 20260505122510 | 71 | 133 | 1.0 | 4.0 | 0.00 | 0.00 | 0.00 | 91 | 1009.1 |
| 20260505122014 | 70 | 129 | 1.0 | 3.0 | 0.00 | 0.00 | 0.00 | 91 | 1009.1 |
| 20260505121532 | 70 | 0 | 0.0 | 3.0 | 0.00 | 0.00 | 0.00 | 91 | 1009.1 |
| 20260505121013 | 70 | 0 | 0.0 | 3.0 | 0.00 | 0.00 | 0.00 | 90 | 1009.2 |
| 20260505120512 | 70 | 147 | 0.0 | 5.0 | 0.00 | 0.00 | 0.00 | 90 | 1008.9 |
| 20260505120039 | 70 | 0 | 0.0 | 7.0 | 0.00 | 0.00 | 0.00 | 90 | 1008.9 |
| 20260505115512 | 70 | 103 | 1.0 | 7.0 | 0.00 | 0.00 | 0.00 | 90 | 1008.9 |
| 20260505115009 | 70 | 0 | 0.0 | 5.0 | 0.00 | 0.00 | 0.00 | 90 | 1008.8 |
| 20260505114527 | 70 | 185 | 1.0 | 5.0 | 0.00 | 0.00 | 0.00 | 90 | 1008.6 |
| 20260505114012 | 70 | 148 | 0.0 | 3.0 | 0.00 | 0.00 | 0.00 | 90 | 1008.5 |
| 20260505113511 | 70 | 0 | 0.0 | 5.0 | 0.00 | 0.00 | 0.00 | 90 | 1008.7 |
| 20260505113029 | 70 | 177 | 1.0 | 5.0 | 0.00 | 0.00 | 0.00 | 90 | 1009.0 |
| 20260505112511 | 70 | 0 | 0.0 | 5.0 | 0.00 | 0.00 | 0.00 | 90 | 1008.9 |
| 20260505112011 | 70 | 0 | 1.0 | 7.0 | 0.00 | 0.00 | 0.00 | 90 | 1008.9 |
| 20260505111532 | 70 | 139 | 0.0 | 7.0 | 0.00 | 0.00 | 0.00 | 90 | 1009.0 |
| 20260505111011 | 70 | 224 | 1.0 | 7.0 | 0.00 | 0.00 | 0.00 | 90 | 1008.8 |
| 20260505110511 | 70 | 0 | 1.0 | 6.0 | 0.00 | 0.00 | 0.00 | 90 | 1008.9 |
| 20260505101014 | 70 | 146 | 0.0 | 6.0 | 0.00 | 0.00 | 0.00 | 89 | 1008.7 |
| 20260505100511 | 70 | 146 | 1.0 | 6.0 | 0.00 | 0.00 | 0.00 | 89 | 1008.8 |
| 20260505095511 | 70 | 238 | 0.0 | 3.0 | 0.00 | 0.00 | 0.00 | 89 | 1008.9 |
| 20260505095012 | 70 | 230 | 0.0 | 6.0 | 0.00 | 0.00 | 0.00 | 89 | 1009.0 |
| 20260505094531 | 70 | 0 | 0.0 | 6.0 | 0.00 | 0.00 | 0.00 | 89 | 1008.9 |
| 20260505094012 | 70 | 0 | 0.0 | 7.0 | 0.00 | 0.00 | 0.00 | 89 | 1008.9 |
| 20260505093512 | 70 | 155 | 1.0 | 7.0 | 0.00 | 0.00 | 0.00 | 89 | 1008.9 |
| 20260505093031 | 70 | 136 | 1.0 | 7.0 | 0.00 | 0.00 | 0.00 | 89 | 1008.9 |
| 20260505092510 | 70 | 0 | 0.0 | 5.0 | 0.00 | 0.00 | 0.00 | 89 | 1008.9 |
| 20260505092014 | 70 | 0 | 0.0 | 5.0 | 0.00 | 0.00 | 0.00 | 89 | 1009.0 |
| 20260505091532 | 70 | 169 | 0.0 | 5.0 | 0.00 | 0.00 | 0.00 | 88 | 1009.1 |
| 20260505091011 | 70 | 0 | 1.0 | 6.0 | 0.00 | 0.00 | 0.00 | 88 | 1009.1 |
| 20260505090509 | 70 | 0 | 0.0 | 6.0 | 0.00 | 0.00 | 0.00 | 88 | 1009.2 |
| 20260505090027 | 70 | 0 | 1.0 | 4.0 | 0.00 | 0.00 | 0.00 | 88 | 1009.2 |
| 20260505085511 | 70 | 126 | 1.0 | 6.0 | 0.00 | 0.00 | 0.00 | 88 | 1009.2 |
| 20260505085009 | 70 | 184 | 1.0 | 6.0 | 0.00 | 0.00 | 0.00 | 88 | 1009.2 |
| 20260505084543 | 70 | 141 | 0.0 | 4.0 | 0.00 | 0.00 | 0.00 | 88 | 1009.3 |
| 20260505084012 | 70 | 160 | 0.0 | 4.0 | 0.00 | 0.00 | 0.00 | 88 | 1009.1 |
| 20260505083511 | 70 | 0 | 1.0 | 5.0 | 0.00 | 0.00 | 0.00 | 88 | 1009.2 |
| 20260505083046 | 70 | 0 | 1.0 | 6.0 | 0.00 | 0.00 | 0.00 | 88 | 1009.2 |
| 20260505082510 | 70 | 101 | 0.0 | 6.0 | 0.00 | 0.00 | 0.00 | 88 | 1009.4 |
| 20260505082013 | 70 | 150 | 1.0 | 6.0 | 0.00 | 0.00 | 0.00 | 87 | 1009.4 |
| 20260505081541 | 70 | 167 | 1.0 | 5.0 | 0.00 | 0.00 | 0.00 | 87 | 1009.4 |
| 20260505081014 | 70 | 215 | 1.0 | 5.0 | 0.00 | 0.00 | 0.00 | 87 | 1009.5 |
| 20260505080512 | 70 | 140 | 0.0 | 5.0 | 0.00 | 0.00 | 0.00 | 87 | 1009.4 |
| 20260505080039 | 70 | 97 | 0.0 | 4.0 | 0.00 | 0.00 | 0.00 | 87 | 1009.5 |
| 20260505075514 | 70 | 0 | 1.0 | 4.0 | 0.00 | 0.00 | 0.00 | 87 | 1009.6 |
| 20260505075011 | 70 | 198 | 0.0 | 4.0 | 0.00 | 0.00 | 0.00 | 86 | 1009.6 |
| 20260505074527 | 70 | 0 | 1.0 | 4.0 | 0.00 | 0.00 | 0.00 | 86 | 1009.6 |
| 20260505074012 | 70 | 0 | 0.0 | 4.0 | 0.00 | 0.00 | 0.00 | 86 | 1009.6 |
| 20260505073512 | 70 | 0 | 1.0 | 4.0 | 0.00 | 0.00 | 0.00 | 86 | 1009.7 |
| 20260505073036 | 70 | 0 | 0.0 | 3.0 | 0.00 | 0.00 | 0.00 | 86 | 1009.7 |
| 20260505072513 | 70 | 0 | 0.0 | 3.0 | 0.00 | 0.00 | 0.00 | 86 | 1009.7 |
| 20260505072011 | 70 | 0 | 0.0 | 3.0 | 0.00 | 0.00 | 0.00 | 85 | 1009.8 |
| 20260505071541 | 70 | 0 | 0.0 | 4.0 | 0.00 | 0.00 | 0.00 | 85 | 1009.9 |
| 20260505071009 | 70 | 160 | 1.0 | 6.0 | 0.00 | 0.00 | 0.00 | 85 | 1010.0 |
| 20260505070515 | 70 | 136 | 0.0 | 6.0 | 0.00 | 0.00 | 0.00 | 85 | 1010.0 |
| 20260505070039 | 70 | 167 | 1.0 | 6.0 | 0.00 | 0.00 | 0.00 | 85 | 1009.9 |
| 20260505065511 | 70 | 189 | 1.0 | 6.0 | 0.00 | 0.00 | 0.00 | 85 | 1010.0 |
| 20260505065011 | 70 | 0 | 1.0 | 6.0 | 0.00 | 0.00 | 0.00 | 85 | 1010.1 |
| 20260505064528 | 70 | 0 | 1.0 | 6.0 | 0.00 | 0.00 | 0.00 | 85 | 1010.2 |
| 20260505064011 | 70 | 169 | 2.0 | 6.0 | 0.00 | 0.00 | 0.00 | 85 | 1010.1 |
| 20260505063513 | 70 | 0 | 0.0 | 6.0 | 0.00 | 0.00 | 0.00 | 85 | 1010.1 |
| 20260505063037 | 70 | 0 | 1.0 | 6.0 | 0.00 | 0.00 | 0.00 | 84 | 1010.2 |
| 20260505062509 | 70 | 0 | 0.0 | 7.0 | 0.00 | 0.00 | 0.00 | 84 | 1010.4 |
| 20260505062013 | 70 | 148 | 0.0 | 7.0 | 0.00 | 0.00 | 0.00 | 84 | 1010.4 |
| 20260505061530 | 70 | 0 | 0.0 | 7.0 | 0.00 | 0.00 | 0.00 | 84 | 1010.2 |
| 20260505061010 | 70 | 0 | 2.0 | 7.0 | 0.00 | 0.00 | 0.00 | 84 | 1010.3 |
| 20260505060514 | 70 | 161 | 1.0 | 10.0 | 0.00 | 0.00 | 0.00 | 84 | 1010.4 |
| 20260505060050 | 70 | 183 | 1.0 | 10.0 | 0.00 | 0.00 | 0.00 | 83 | 1010.4 |
| 20260505055512 | 70 | 150 | 1.0 | 5.0 | 0.00 | 0.00 | 0.00 | 83 | 1010.4 |
| 20260505055014 | 70 | 205 | 1.0 | 6.0 | 0.00 | 0.00 | 0.00 | 83 | 1010.4 |
| 20260505054526 | 70 | 0 | 1.0 | 7.0 | 0.00 | 0.00 | 0.00 | 83 | 1010.5 |
| 20260505054017 | 70 | 0 | 0.0 | 7.0 | 0.00 | 0.00 | 0.00 | 82 | 1010.5 |
| 20260505053512 | 70 | 163 | 0.0 | 3.0 | 0.00 | 0.00 | 0.00 | 82 | 1010.6 |
| 20260505053027 | 70 | 0 | 0.0 | 3.0 | 0.00 | 0.00 | 0.00 | 82 | 1010.8 |
| 20260505052512 | 70 | 0 | 0.0 | 6.0 | 0.00 | 0.00 | 0.00 | 81 | 1010.7 |
| 20260505052012 | 71 | 0 | 0.0 | 6.0 | 0.00 | 0.00 | 0.00 | 81 | 1010.8 |
| 20260505051528 | 71 | 178 | 0.0 | 8.0 | 0.00 | 0.00 | 0.00 | 81 | 1010.8 |
| 20260505051010 | 71 | 290 | 0.0 | 8.0 | 0.00 | 0.00 | 0.00 | 81 | 1010.9 |
| 20260505050510 | 71 | 159 | 2.0 | 8.0 | 0.00 | 0.00 | 0.00 | 81 | 1010.8 |
| 20260505041537 | 72 | 233 | 1.0 | 11.0 | 0.00 | 0.00 | 0.00 | 79 | 1010.8 |
| 20260505041012 | 72 | 176 | 1.0 | 11.0 | 0.00 | 0.00 | 0.00 | 78 | 1010.8 |
| 20260505040513 | 72 | 216 | 2.0 | 9.0 | 0.00 | 0.00 | 0.00 | 78 | 1010.8 |
| 20260505040033 | 72 | 176 | 2.0 | 13.0 | 0.00 | 0.00 | 0.00 | 78 | 1010.8 |
| 20260505035509 | 72 | 202 | 1.0 | 13.0 | 0.00 | 0.00 | 0.00 | 77 | 1010.9 |
| 20260505035011 | 72 | 166 | 2.0 | 8.0 | 0.00 | 0.00 | 0.00 | 77 | 1011.0 |
| 20260505034529 | 72 | 77 | 3.0 | 8.0 | 0.00 | 0.00 | 0.00 | 77 | 1010.9 |
| 20260505034015 | 72 | 169 | 2.0 | 8.0 | 0.00 | 0.00 | 0.00 | 77 | 1010.9 |
| 20260505033513 | 72 | 60 | 1.0 | 11.0 | 0.00 | 0.00 | 0.00 | 77 | 1011.0 |
| 20260505033027 | 72 | 150 | 1.0 | 11.0 | 0.00 | 0.00 | 0.00 | 77 | 1011.0 |
| 20260505032511 | 73 | 0 | 1.0 | 10.0 | 0.00 | 0.00 | 0.00 | 76 | 1011.2 |
| 20260505032014 | 73 | 143 | 2.0 | 9.0 | 0.00 | 0.00 | 0.00 | 76 | 1011.2 |
| 20260505031526 | 73 | 0 | 1.0 | 7.0 | 0.00 | 0.00 | 0.00 | 75 | 1011.1 |
| 20260505031010 | 73 | 192 | 1.0 | 9.0 | 0.00 | 0.00 | 0.00 | 75 | 1011.1 |
| 20260505030509 | 73 | 228 | 1.0 | 10.0 | 0.00 | 0.00 | 0.00 | 76 | 1011.0 |
| 20260505030028 | 73 | 77 | 0.0 | 10.0 | 0.00 | 0.00 | 0.00 | 75 | 1011.1 |
| 20260505025518 | 73 | 163 | 2.0 | 9.0 | 0.00 | 0.00 | 0.00 | 75 | 1011.1 |
| 20260505025012 | 73 | 149 | 1.0 | 8.0 | 0.00 | 0.00 | 0.00 | 74 | 1010.9 |
| 20260505024527 | 74 | 178 | 2.0 | 9.0 | 0.00 | 0.00 | 0.00 | 74 | 1010.8 |
| 20260505024015 | 74 | 0 | 1.0 | 10.0 | 0.00 | 0.00 | 0.00 | 74 | 1010.7 |
| 20260505023512 | 74 | 96 | 2.0 | 10.0 | 0.00 | 0.00 | 0.00 | 74 | 1010.8 |
| 20260505023027 | 74 | 118 | 2.0 | 10.0 | 0.00 | 0.00 | 0.00 | 74 | 1010.8 |
| 20260505022510 | 74 | 179 | 2.0 | 10.0 | 0.00 | 0.00 | 0.00 | 74 | 1010.9 |
| 20260505022012 | 74 | 153 | 2.0 | 11.0 | 0.00 | 0.00 | 0.00 | 74 | 1010.9 |
| 20260505021530 | 74 | 93 | 2.0 | 11.0 | 0.00 | 0.00 | 0.00 | 74 | 1010.9 |
| 20260505021015 | 74 | 0 | 3.0 | 11.0 | 0.00 | 0.00 | 0.00 | 74 | 1010.9 |
| 20260505020513 | 74 | 0 | 2.0 | 9.0 | 0.00 | 0.00 | 0.00 | 74 | 1010.8 |
| 20260505020035 | 74 | 188 | 2.0 | 9.0 | 0.00 | 0.00 | 0.00 | 74 | 1010.8 |
| 20260505015514 | 74 | 189 | 1.0 | 12.0 | 0.00 | 0.00 | 0.00 | 74 | 1010.6 |
| 20260505015014 | 74 | 0 | 2.0 | 12.0 | 0.00 | 0.00 | 0.00 | 74 | 1010.7 |
| 20260505014538 | 74 | 115 | 2.0 | 8.0 | 0.00 | 0.00 | 0.00 | 74 | 1010.6 |
| 20260505014012 | 74 | 0 | 1.0 | 8.0 | 0.00 | 0.00 | 0.00 | 74 | 1010.6 |
| 20260505013513 | 74 | 115 | 2.0 | 8.0 | 0.00 | 0.00 | 0.00 | 73 | 1010.6 |
| 20260505013037 | 74 | 126 | 0.0 | 5.0 | 0.00 | 0.00 | 0.00 | 72 | 1010.4 |
| 20260505012514 | 75 | 0 | 0.0 | 7.0 | 0.00 | 0.00 | 0.00 | 72 | 1010.4 |
| 20260505012011 | 75 | 0 | 1.0 | 13.0 | 0.00 | 0.00 | 0.00 | 71 | 1010.3 |
| 20260505011535 | 75 | 162 | 2.0 | 13.0 | 0.00 | 0.00 | 0.00 | 71 | 1010.2 |
| 20260505011015 | 75 | 127 | 1.0 | 10.0 | 0.00 | 0.00 | 0.00 | 70 | 1010.3 |
| 20260505010513 | 76 | 148 | 0.0 | 3.0 | 0.00 | 0.00 | 0.00 | 70 | 1010.4 |
| 20260505010030 | 76 | 150 | 0.0 | 7.0 | 0.00 | 0.00 | 0.00 | 70 | 1010.4 |
| 20260505005514 | 76 | 170 | 1.0 | 7.0 | 0.00 | 0.00 | 0.00 | 69 | 1010.4 |
| 20260505005012 | 76 | 0 | 0.0 | 6.0 | 0.00 | 0.00 | 0.00 | 69 | 1010.4 |
| 20260505004540 | 77 | 94 | 0.0 | 6.0 | 0.00 | 0.00 | 0.00 | 68 | 1010.3 |
| 20260505004015 | 77 | 203 | 1.0 | 6.0 | 0.00 | 0.00 | 0.00 | 68 | 1010.3 |
| 20260505003513 | 77 | 130 | 1.0 | 6.0 | 0.00 | 0.00 | 0.00 | 68 | 1010.2 |
| 20260505003048 | 77 | 0 | 0.0 | 6.0 | 0.00 | 0.00 | 0.00 | 68 | 1010.2 |
| 20260505002513 | 77 | 199 | 2.0 | 6.0 | 0.00 | 0.00 | 0.00 | 67 | 1010.3 |
| 20260505002012 | 77 | 175 | 0.0 | 11.0 | 0.00 | 0.00 | 0.00 | 67 | 1010.4 |
| 20260505001530 | 77 | 192 | 1.0 | 11.0 | 0.00 | 0.00 | 0.00 | 66 | 1010.3 |
| 20260505001010 | 78 | 169 | 2.0 | 11.0 | 0.00 | 0.00 | 0.00 | 66 | 1010.3 |
| 20260505000514 | 78 | 158 | 0.0 | 11.0 | 0.00 | 0.00 | 0.00 | 66 | 1010.3 |
| 20260505000034 | 78 | 174 | 2.0 | 11.0 | 0.00 | 0.00 | 0.00 | 66 | 1010.4 |
| 20260504235513 | 78 | 0 | 2.0 | 7.0 | 0.00 | 0.00 | 0.00 | 66 | 1010.4 |
| 20260504235012 | 78 | 185 | 0.0 | 6.0 | 0.00 | 0.00 | 0.00 | 65 | 1010.6 |
| 20260504234530 | 78 | 0 | 1.0 | 7.0 | 0.00 | 0.00 | 0.00 | 65 | 1010.5 |
| 20260504234016 | 79 | 181 | 3.0 | 7.0 | 0.00 | 0.00 | 0.00 | 65 | 1010.5 |
| 20260504233513 | 79 | 0 | 1.0 | 9.0 | 0.00 | 0.00 | 0.00 | 65 | 1010.4 |
| 20260504233029 | 79 | 182 | 2.0 | 9.0 | 0.00 | 0.00 | 0.00 | 64 | 1010.5 |
| 20260504232515 | 79 | 0 | 2.0 | 9.0 | 0.00 | 0.00 | 0.00 | 63 | 1010.5 |
| 20260504232010 | 79 | 115 | 3.0 | 9.0 | 0.00 | 0.00 | 0.00 | 63 | 1010.6 |
| 20260504231530 | 79 | 345 | 1.0 | 7.0 | 0.00 | 0.00 | 0.00 | 64 | 1010.6 |
| 20260504231014 | 79 | 0 | 1.0 | 14.0 | 0.00 | 0.00 | 0.00 | 64 | 1010.5 |
| 20260504230514 | 80 | 163 | 2.0 | 14.0 | 0.00 | 0.00 | 0.00 | 62 | 1010.8 |
| 20260504230027 | 80 | 249 | 1.0 | 12.0 | 0.00 | 0.00 | 0.00 | 62 | 1010.9 |
| 20260504225512 | 80 | 189 | 4.0 | 12.0 | 0.00 | 0.00 | 0.00 | 60 | 1010.8 |
| 20260504225011 | 80 | 203 | 3.0 | 10.0 | 0.00 | 0.00 | 0.00 | 61 | 1010.8 |
| 20260504224528 | 80 | 0 | 0.0 | 6.0 | 0.00 | 0.00 | 0.00 | 64 | 1010.9 |
| 20260504224010 | 80 | 0 | 0.0 | 6.0 | 0.00 | 0.00 | 0.00 | 62 | 1010.8 |
| 20260504223511 | 80 | 202 | 2.0 | 10.0 | 0.00 | 0.00 | 0.00 | 60 | 1011.0 |
| 20260504223029 | 80 | 0 | 2.0 | 10.0 | 0.00 | 0.00 | 0.00 | 60 | 1011.0 |
| 20260504222512 | 80 | 208 | 1.0 | 12.0 | 0.00 | 0.00 | 0.00 | 60 | 1011.0 |
| 20260504222009 | 81 | 0 | 3.0 | 12.0 | 0.00 | 0.00 | 0.00 | 58 | 1011.0 |
| 20260504221526 | 81 | 0 | 1.0 | 9.0 | 0.00 | 0.00 | 0.00 | 60 | 1011.1 |
| 20260504221011 | 81 | 118 | 2.0 | 9.0 | 0.00 | 0.00 | 0.00 | 60 | 1011.2 |
| 20260504220511 | 81 | 0 | 2.0 | 8.0 | 0.00 | 0.00 | 0.00 | 59 | 1011.2 |
| 20260504220031 | 81 | 264 | 3.0 | 9.0 | 0.00 | 0.00 | 0.00 | 58 | 1011.2 |
| 20260504215510 | 82 | 176 | 1.0 | 9.0 | 0.00 | 0.00 | 0.00 | 59 | 1011.2 |
| 20260504215008 | 82 | 0 | 3.0 | 9.0 | 0.00 | 0.00 | 0.00 | 56 | 1011.2 |
| 20260504214526 | 82 | 0 | 1.0 | 9.0 | 0.00 | 0.00 | 0.00 | 56 | 1011.3 |
| 20260504214013 | 82 | 229 | 2.0 | 9.0 | 0.00 | 0.00 | 0.00 | 55 | 1011.3 |
| 20260504213511 | 82 | 124 | 1.0 | 10.0 | 0.00 | 0.00 | 0.00 | 54 | 1011.4 |
| 20260504213029 | 83 | 198 | 1.0 | 10.0 | 0.00 | 0.00 | 0.00 | 53 | 1011.4 |
| 20260504212509 | 83 | 186 | 3.0 | 10.0 | 0.00 | 0.00 | 0.00 | 52 | 1011.6 |
| 20260504212012 | 83 | 263 | 3.0 | 12.0 | 0.00 | 0.00 | 0.00 | 53 | 1011.6 |
| 20260504211536 | 84 | 182 | 2.0 | 12.0 | 0.00 | 0.00 | 0.00 | 54 | 1011.6 |
| 20260504211011 | 84 | 217 | 2.0 | 12.0 | 0.00 | 0.00 | 0.00 | 52 | 1011.7 |
| 20260504210511 | 84 | 162 | 3.0 | 9.0 | 0.00 | 0.00 | 0.00 | 51 | 1011.8 |
| 20260504210026 | 85 | 0 | 0.0 | 9.0 | 0.00 | 0.00 | 0.00 | 52 | 1011.9 |
| 20260504205007 | 85 | 0 | 2.0 | 8.0 | 0.00 | 0.00 | 0.00 | 52 | 1011.9 |
| 20260504204532 | 84 | 155 | 2.0 | 9.0 | 0.00 | 0.00 | 0.00 | 52 | 1012.2 |
| 20260504204011 | 84 | 0 | 3.0 | 9.0 | 0.00 | 0.00 | 0.00 | 51 | 1012.3 |
| 20260504203514 | 84 | 248 | 3.0 | 8.0 | 0.00 | 0.00 | 0.00 | 52 | 1012.4 |
| 20260504203026 | 84 | 129 | 3.0 | 8.0 | 0.00 | 0.00 | 0.00 | 51 | 1012.4 |
| 20260504202509 | 84 | 0 | 1.0 | 6.0 | 0.00 | 0.00 | 0.00 | 53 | 1012.5 |
| 20260504202011 | 84 | 281 | 1.0 | 11.0 | 0.00 | 0.00 | 0.00 | 53 | 1012.7 |
| 20260504201529 | 84 | 203 | 2.0 | 11.0 | 0.00 | 0.00 | 0.00 | 52 | 1012.9 |
| 20260504201009 | 84 | 186 | 2.0 | 10.0 | 0.00 | 0.00 | 0.00 | 53 | 1012.9 |
| 20260504200511 | 84 | 185 | 1.0 | 10.0 | 0.00 | 0.00 | 0.00 | 51 | 1013.0 |
| 20260504200029 | 84 | 166 | 1.0 | 8.0 | 0.00 | 0.00 | 0.00 | 52 | 1013.1 |
| 20260504195522 | 84 | 156 | 0.0 | 8.0 | 0.00 | 0.00 | 0.00 | 53 | 1013.2 |
| 20260504195012 | 84 | 0 | 1.0 | 8.0 | 0.00 | 0.00 | 0.00 | 52 | 1013.3 |
| 20260504194528 | 84 | 132 | 1.0 | 6.0 | 0.00 | 0.00 | 0.00 | 52 | 1013.4 |
| 20260504194010 | 84 | 61 | 2.0 | 7.0 | 0.00 | 0.00 | 0.00 | 52 | 1013.3 |
| 20260504193513 | 84 | 0 | 0.0 | 9.0 | 0.00 | 0.00 | 0.00 | 52 | 1013.4 |
| 20260504193026 | 84 | 210 | 1.0 | 9.0 | 0.00 | 0.00 | 0.00 | 51 | 1013.5 |
| 20260504192513 | 84 | 218 | 3.0 | 9.0 | 0.00 | 0.00 | 0.00 | 51 | 1013.6 |
| 20260504192014 | 84 | 163 | 2.0 | 10.0 | 0.00 | 0.00 | 0.00 | 51 | 1013.6 |
| 20260504191529 | 84 | 208 | 2.0 | 10.0 | 0.00 | 0.00 | 0.00 | 51 | 1013.5 |
| 20260504191011 | 84 | 226 | 2.0 | 12.0 | 0.00 | 0.00 | 0.00 | 52 | 1013.7 |
| 20260504190510 | 85 | 200 | 3.0 | 12.0 | 0.00 | 0.00 | 0.00 | 50 | 1014.0 |
| 20260504190028 | 85 | 185 | 1.0 | 10.0 | 0.00 | 0.00 | 0.00 | 49 | 1014.0 |
| 20260504185512 | 84 | 231 | 3.0 | 10.0 | 0.00 | 0.00 | 0.00 | 51 | 1014.0 |
| 20260504185011 | 84 | 0 | 1.0 | 8.0 | 0.00 | 0.00 | 0.00 | 52 | 1014.0 |
| 20260504184541 | 83 | 0 | 2.0 | 8.0 | 0.00 | 0.00 | 0.00 | 50 | 1014.0 |
| 20260504184012 | 83 | 286 | 1.0 | 13.0 | 0.00 | 0.00 | 0.00 | 52 | 1014.1 |
| 20260504183029 | 82 | 0 | 1.0 | 8.0 | 0.00 | 0.00 | 0.00 | 52 | 1014.1 |
| 20260504182510 | 82 | 160 | 2.0 | 8.0 | 0.00 | 0.00 | 0.00 | 53 | 1014.2 |
| 20260504182013 | 82 | 176 | 3.0 | 8.0 | 0.00 | 0.00 | 0.00 | 53 | 1014.4 |
| 20260504181531 | 82 | 0 | 1.0 | 12.0 | 0.00 | 0.00 | 0.00 | 55 | 1014.2 |
| 20260504181010 | 81 | 63 | 3.0 | 12.0 | 0.00 | 0.00 | 0.00 | 56 | 1014.2 |
| 20260504180512 | 81 | 236 | 2.0 | 8.0 | 0.00 | 0.00 | 0.00 | 55 | 1014.5 |
| 20260504180028 | 81 | 110 | 2.0 | 10.0 | 0.00 | 0.00 | 0.00 | 52 | 1014.6 |
| 20260504175511 | 82 | 221 | 1.0 | 13.0 | 0.00 | 0.00 | 0.00 | 52 | 1014.6 |
| 20260504175018 | 81 | 128 | 2.0 | 13.0 | 0.00 | 0.00 | 0.00 | 53 | 1014.5 |
| 20260504174529 | 82 | 175 | 2.0 | 12.0 | 0.00 | 0.00 | 0.00 | 52 | 1014.7 |
| 20260504174011 | 82 | 0 | 3.0 | 12.0 | 0.00 | 0.00 | 0.00 | 52 | 1014.8 |
| 20260504173511 | 82 | 0 | 1.0 | 9.0 | 0.00 | 0.00 | 0.00 | 53 | 1014.9 |
| 20260504173028 | 81 | 218 | 1.0 | 7.0 | 0.00 | 0.00 | 0.00 | 53 | 1014.9 |
| 20260504172508 | 81 | 212 | 2.0 | 8.0 | 0.00 | 0.00 | 0.00 | 52 | 1014.9 |
| 20260504171529 | 80 | 205 | 3.0 | 11.0 | 0.00 | 0.00 | 0.00 | 53 | 1015.1 |
| 20260504171011 | 80 | 206 | 3.0 | 11.0 | 0.00 | 0.00 | 0.00 | 54 | 1015.3 |
| 20260504170508 | 80 | 162 | 3.0 | 10.0 | 0.00 | 0.00 | 0.00 | 54 | 1015.2 |